Total_Precipitation_Accumulation
0.22 0.50 0.68 0.61 0.56 0.58 0.54 0.45 0.36 0.32 0.35 0.33 0.28 0.22 0.22 0.23 0.22 0.19 0.16 0.16 0.14 0.13 0.12 0.11 0.10 0.15 0.21 0.30 0.39 0.56 0.90 1.33 1.53 1.44 1.40 1.49 1.61 1.61 1.52 1.51 1.49 1.54 1.54 1.53
0.24 0.32 0.27 0.29 0.36 0.44 0.50 0.48 0.42 0.34 0.26 0.23 0.20 0.16 0.15 0.17 0.19 0.17 0.16 0.16 0.16 0.14 0.11 0.08 0.09 0.12 0.18 0.33 0.48 0.61 0.86 1.30 1.53 1.64 1.75 1.97 2.18 2.10 1.97 1.96 1.92 2.00 2.02 2.17
0.17 0.17 0.15 0.24 0.37 0.44 0.46 0.44 0.41 0.35 0.23 0.17 0.13 0.11 0.11 0.13 0.14 0.13 0.14 0.16 0.15 0.13 0.12 0.11 0.11 0.15 0.19 0.29 0.40 0.55 0.71 1.01 1.34 1.60 1.89 2.21 2.46 2.46 2.35 2.19 2.16 2.22 2.29 2.44
0.17 0.19 0.18 0.20 0.26 0.30 0.39 0.29 0.24 0.21 0.22 0.21 0.13 0.15 0.13 0.16 0.16 0.15 0.15 0.16 0.17 0.16 0.15 0.17 0.16 0.17 0.19 0.25 0.32 0.44 0.62 0.88 1.13 1.38 1.80 2.25 2.57 2.69 2.62 2.51 2.46 2.43 2.45 2.50
0.13 0.14 0.14 0.15 0.18 0.21 0.27 0.22 0.18 0.17 0.16 0.15 0.12 0.13 0.15 0.16 0.19 0.18 0.18 0.18 0.17 0.16 0.18 0.21 0.21 0.23 0.25 0.23 0.28 0.38 0.55 0.79 1.04 1.27 1.63 2.06 2.36 2.60 2.77 2.60 2.47 2.49 2.52 2.55
0.14 0.10 0.10 0.13 0.17 0.18 0.23 0.20 0.15 0.13 0.15 0.14 0.08 0.14 0.22 0.20 0.19 0.18 0.16 0.16 0.18 0.20 0.24 0.28 0.36 0.40 0.39 0.33 0.36 0.45 0.54 0.68 0.85 1.00 1.23 1.48 1.84 2.14 2.50 2.50 2.42 2.54 2.53 2.45
0.13 0.11 0.10 0.11 0.13 0.13 0.17 0.22 0.25 0.23 0.22 0.16 0.10 0.19 0.31 0.27 0.20 0.19 0.20 0.20 0.21 0.23 0.27 0.35 0.48 0.52 0.53 0.47 0.43 0.45 0.55 0.61 0.67 0.78 0.91 1.07 1.35 1.55 1.94 2.26 2.24 2.16 2.22 2.27
0.14 0.13 0.08 0.08 0.09 0.12 0.13 0.20 0.31 0.36 0.32 0.25 0.22 0.36 0.43 0.32 0.23 0.21 0.21 0.22 0.25 0.29 0.35 0.51 0.66 0.68 0.68 0.60 0.53 0.52 0.60 0.63 0.65 0.70 0.73 0.83 1.00 1.13 1.31 1.55 1.67 1.71 1.77 1.99
0.16 0.12 0.09 0.09 0.08 0.10 0.13 0.15 0.19 0.28 0.27 0.27 0.34 0.48 0.43 0.27 0.26 0.28 0.28 0.29 0.38 0.48 0.55 0.68 0.81 0.83 0.75 0.69 0.61 0.60 0.64 0.73 0.73 0.72 0.74 0.84 0.90 0.94 1.06 1.10 1.25 1.45 1.48 1.55
0.19 0.13 0.08 0.08 0.08 0.08 0.10 0.15 0.22 0.33 0.40 0.39 0.38 0.47 0.48 0.37 0.38 0.37 0.42 0.44 0.55 0.66 0.74 0.83 0.95 0.97 0.83 0.71 0.61 0.59 0.61 0.73 0.92 1.04 0.99 0.93 1.01 1.08 1.30 1.34 1.19 1.18 1.37 1.44
0.28 0.23 0.10 0.08 0.10 0.13 0.17 0.24 0.30 0.38 0.41 0.56 0.64 0.66 0.59 0.57 0.58 0.59 0.62 0.65 0.74 0.86 0.87 0.84 0.91 0.98 0.87 0.68 0.61 0.56 0.56 0.67 0.83 0.87 0.93 0.92 0.97 1.07 1.35 1.57 1.51 1.33 1.34 1.38
0.29 0.38 0.23 0.13 0.16 0.20 0.26 0.37 0.51 0.71 0.68 0.64 0.78 0.81 0.65 0.58 0.63 0.64 0.64 0.63 0.67 0.79 0.80 0.81 0.83 0.80 0.70 0.56 0.49 0.47 0.48 0.59 0.71 0.70 0.77 0.84 0.86 0.95 1.07 1.19 1.21 1.15 1.08 1.06
0.38 0.53 0.46 0.33 0.36 0.35 0.43 0.46 0.52 0.64 0.73 0.74 0.83 0.86 0.62 0.54 0.49 0.52 0.55 0.58 0.60 0.60 0.60 0.59 0.60 0.57 0.55 0.53 0.50 0.45 0.47 0.54 0.60 0.64 0.69 0.77 0.80 0.83 0.84 0.85 0.78 0.82 0.85 0.93
0.36 0.46 0.54 0.56 0.59 0.61 0.61 0.51 0.45 0.60 0.79 0.76 0.75 0.74 0.61 0.53 0.49 0.52 0.54 0.54 0.57 0.50 0.44 0.44 0.46 0.47 0.49 0.49 0.49 0.46 0.43 0.51 0.60 0.74 0.81 0.86 0.87 0.87 0.87 0.85 0.81 0.80 0.83 0.89
0.25 0.29 0.28 0.27 0.29 0.41 0.46 0.39 0.38 0.45 0.52 0.67 0.66 0.65 0.52 0.49 0.53 0.57 0.54 0.49 0.45 0.39 0.34 0.35 0.36 0.38 0.37 0.38 0.40 0.40 0.38 0.44 0.51 0.65 0.77 0.83 0.86 0.87 0.84 0.78 0.75 0.79 0.76 0.76
0.17 0.22 0.20 0.17 0.19 0.27 0.34 0.35 0.36 0.36 0.40 0.50 0.57 0.56 0.43 0.39 0.38 0.39 0.36 0.31 0.29 0.29 0.26 0.24 0.25 0.27 0.26 0.24 0.24 0.26 0.33 0.41 0.47 0.55 0.65 0.81 0.87 0.80 0.76 0.69 0.68 0.71 0.70 0.67
0.14 0.25 0.33 0.26 0.22 0.24 0.49 0.51 0.51 0.52 0.46 0.45 0.40 0.32 0.21 0.20 0.23 0.26 0.26 0.26 0.30 0.26 0.20 0.19 0.19 0.20 0.21 0.22 0.25 0.28 0.34 0.44 0.44 0.48 0.60 0.80 0.81 0.70 0.65 0.71 0.75 0.72 0.70 0.70
0.12 0.25 0.34 0.28 0.31 0.59 0.83 0.61 0.58 0.53 0.32 0.18 0.13 0.12 0.12 0.17 0.17 0.15 0.16 0.19 0.22 0.19 0.15 0.13 0.13 0.13 0.14 0.17 0.21 0.24 0.28 0.32 0.35 0.41 0.50 0.65 0.68 0.66 0.69 0.70 0.68 0.63 0.59 0.58
0.12 0.25 0.35 0.31 0.37 0.61 0.64 0.41 0.33 0.33 0.21 0.07 0.06 0.08 0.10 0.12 0.11 0.09 0.09 0.10 0.11 0.11 0.07 0.06 0.06 0.05 0.05 0.06 0.07 0.11 0.13 0.16 0.21 0.28 0.37 0.46 0.50 0.54 0.57 0.56 0.56 0.52 0.49 0.51
0.26 0.32 0.45 0.46 0.57 0.59 0.32 0.17 0.15 0.22 0.26 0.06 0.03 0.04 0.04 0.06 0.09 0.06 0.04 0.05 0.06 0.05 0.04 0.03 0.02 0.01 0.01 0.01 0.02 0.04 0.06 0.10 0.14 0.20 0.27 0.34 0.37 0.41 0.43 0.48 0.51 0.51 0.48 0.46
0.23 0.31 0.40 0.48 0.68 0.55 0.21 0.11 0.11 0.21 0.27 0.08 0.03 0.02 0.02 0.02 0.04 0.02 0.03 0.04 0.04 0.03 0.03 0.01 0.01 0.00 0.00 0.01 0.01 0.02 0.05 0.07 0.08 0.11 0.16 0.23 0.30 0.38 0.45 0.51 0.52 0.55 0.52 0.47
0.25 0.28 0.30 0.41 0.55 0.50 0.20 0.15 0.18 0.17 0.08 0.03 0.02 0.01 0.01 0.01 0.01 0.01 0.02 0.02 0.03 0.03 0.02 0.01 0.01 0.00 0.00 0.01 0.01 0.01 0.02 0.03 0.04 0.06 0.11 0.18 0.26 0.33 0.42 0.51 0.54 0.54 0.54 0.53
0.28 0.30 0.32 0.44 0.57 0.38 0.23 0.21 0.19 0.12 0.06 0.02 0.01 0.01 0.00 0.00 0.00 0.00 0.01 0.02 0.02 0.03 0.02 0.01 0.01 0.01 0.00 0.01 0.01 0.00 0.00 0.00 0.01 0.03 0.06 0.11 0.15 0.19 0.25 0.33 0.41 0.47 0.51 0.53
0.15 0.17 0.23 0.32 0.32 0.20 0.18 0.17 0.12 0.07 0.04 0.02 0.01 0.00 0.00 0.00 0.00 0.00 0.01 0.01 0.02 0.02 0.02 0.01 0.01 0.01 0.01 0.00 0.00 0.00 0.00 0.00 0.00 0.01 0.03 0.05 0.06 0.07 0.10 0.20 0.28 0.35 0.42 0.48
0.11 0.13 0.18 0.25 0.25 0.15 0.11 0.10 0.07 0.04 0.02 0.01 0.01 0.00 0.00 0.00 0.00 0.00 0.00 0.00 0.01 0.01 0.01 0.01 0.01 0.01 0.00 0.00 0.00 0.00 0.01 0.01 0.01 0.01 0.01 0.02 0.04 0.06 0.08 0.14 0.22 0.27 0.34 0.37
0.07 0.11 0.17 0.24 0.23 0.17 0.08 0.07 0.05 0.03 0.02 0.02 0.01 0.00 0.00 0.00 0.00 0.00 0.00 0.00 0.01 0.01 0.01 0.01 0.01 0.01 0.00 0.00 0.00 0.01 0.03 0.02 0.04 0.06 0.03 0.02 0.03 0.06 0.08 0.11 0.13 0.13 0.16 0.16